Location: Unspecified
(0.0000°N, 0.0000°E)
Time: 00:22:50
(UTC+00:00)

STARLINK-31363 - Pass Details

Date: 04 May 2025
Orbit: 482 x 484 km, 43.0° (Epoch: 16 May)

Event Time Altitude Azimuth Distance (km) Brightness Sun altitude
Rises 19:31:00 0° 237° (WSW) 2,530 7.6 -22.6°
Maximum altitude 19:36:48 38° 314° (NW) 735 4.6 -23.9°
Enters shadow 19:37:54 31° 354° (N) 867 4.8 -24.2°
